Sacramento International, CA

2:45 AM PDT on May 24, 2017 (GMT -0700)
Sacramento International

Weather History for KSMF - October, 2012

Change the Weather History Date:

Tuesday, October 23, 2012

  Actual Average Record
Temperature  
Mean Temperature 56 °F -  
Max Temperature 63 °F 75 °F 89 °F (1965)
Min Temperature 51 °F 49 °F 38 °F (1961)
Degree Days  
Heating Degree Days 8    
Growing Degree Days 6 (Base 50)    
Moisture  
Dew Point 45 °F    
Average Humidity 70    
Maximum Humidity 93    
Minimum Humidity 42    
Precipitation  
Precipitation 0.00 in - - ()
Sea Level Pressure  
Sea Level Pressure 30.00 in    
Wind  
Wind Speed 11 mph (South)    
Max Wind Speed 33 mph    
Max Gust Speed 112 mph    
Visibility 10 miles    
Events      
Averages and records for this station are not official NWS values.
T = Trace of Precipitation, MM = Missing Value Source: NWS Daily Summary

Daily Weather History Graph

Daily Weather History Graph

Search for Another Location

Airport or City:

Trip Planner

Search our weather history database for the weather conditions in past years. The results will help you decide how hot, cold, wet, or windy it might be!

Date:

Astronomy

Oct. 23, 2012 Rise Set
Actual Time 7:24 AM PDT 6:16 PM PDT
Civil Twilight 6:57 AM PDT 6:43 PM PDT
Nautical Twilight 6:26 AM PDT 7:14 PM PDT
Astronomical Twilight 5:55 AM PDT 7:45 PM PDT
Moon 2:59 PM PDT (10/23) 1:25 AM PDT (10/23)
Length of Visible Light 11h 46m
Length of Day
10h 52m
Waxing Gibbous, 67% of the Moon is Illuminated
Oct 23
Waxing Gibbous
Oct 29
Full
Nov 6
Last Quarter
Nov 13
New
Nov 20
First Quarter

Hourly Weather History & Observations

Time (PDT) Temp. Dew Point Humidity Pressure Visibility Wind Dir Wind Speed Gust Speed Precip Events Conditions
12:53 AM 53.1 °F 48.9 °F 86% 29.92 in 10.0 mi SSW 15.0 mph - 0.00 in   Overcast
1:53 AM 53.1 °F 48.9 °F 86% 29.93 in 10.0 mi South 16.1 mph - N/A   Overcast
2:53 AM 53.1 °F 48.0 °F 83% 29.95 in 10.0 mi SSW 9.2 mph - N/A   Overcast
3:53 AM 53.1 °F 48.0 °F 83% 29.95 in 10.0 mi South 5.8 mph - N/A   Partly Cloudy
4:53 AM 52.0 °F 50.0 °F 93% 29.96 in 10.0 mi South 6.9 mph - N/A   Clear
5:53 AM 52.0 °F 48.9 °F 89% 29.99 in 10.0 mi SSE 9.2 mph - N/A   Clear
6:53 AM 52.0 °F 48.9 °F 89% 30.00 in 10.0 mi South 8.1 mph - N/A   Partly Cloudy
7:53 AM 52.0 °F 48.9 °F 89% 30.01 in 10.0 mi SSE 9.2 mph - N/A   Scattered Clouds
8:53 AM 53.1 °F 48.9 °F 86% 30.04 in 10.0 mi SSE 8.1 mph - N/A   Clear
9:53 AM 55.4 °F 48.2 °F 77% 30.05 in 10.0 mi South 6.9 mph - N/A   Clear
10:53 AM 57.0 °F 48.0 °F 72% 30.05 in 10.0 mi West 33.4 mph 111.6 mph N/A   Partly Cloudy
11:53 AM 59.0 °F 45.0 °F 60% 30.05 in 10.0 mi South 11.5 mph - N/A   Scattered Clouds
12:53 PM 60.1 °F 44.1 °F 55% 30.04 in 10.0 mi South 12.7 mph - N/A   Scattered Clouds
1:53 PM 62.1 °F 42.1 °F 48% 30.03 in 10.0 mi SSW 10.4 mph - N/A   Scattered Clouds
2:53 PM 62.1 °F 39.0 °F 43% 30.01 in 10.0 mi SW 8.1 mph - N/A   Partly Cloudy
3:53 PM 62.6 °F 39.2 °F 42% 30.00 in 10.0 mi South 8.1 mph - N/A   Clear
4:53 PM 61.0 °F 39.0 °F 44% 29.99 in 10.0 mi Variable 6.9 mph - N/A   Partly Cloudy
5:53 PM 60.1 °F 39.9 °F 47% 29.99 in 10.0 mi South 6.9 mph - N/A   Partly Cloudy
6:53 PM 57.9 °F 42.1 °F 56% 29.99 in 10.0 mi SSE 6.9 mph - N/A   Partly Cloudy
7:53 PM 57.9 °F 41.0 °F 53% 30.00 in 10.0 mi South 6.9 mph - N/A   Scattered Clouds
8:53 PM 55.0 °F 43.0 °F 64% 30.00 in 10.0 mi SSW 6.9 mph - N/A   Partly Cloudy
9:53 PM 54.0 °F 44.1 °F 69% 30.00 in 10.0 mi SSW 6.9 mph - N/A   Clear
10:53 PM 51.1 °F 45.0 °F 80% 30.01 in 10.0 mi SSW 4.6 mph - N/A   Partly Cloudy
11:53 PM 53.1 °F 45.0 °F 74% 30.01 in 10.0 mi SSE 4.6 mph - N/A   Overcast